Weather History for Gillette, WY

Change the Weather History Date:

Friday, May 17, 2013

  Actual Average Record
Temperature  
Mean Temperature 61 °F 53 °F  
Max Temperature 74 °F 66 °F 90 °F (1948)
Min Temperature 47 °F 40 °F 25 °F (1942)
Degree Days  
Heating Degree Days 4 12  
Month to date heating degree days 202 245  
Since 1 July heating degree days 7164 7261  
Cooling Degree Days 0 0  
Month to date cooling degree days 8 0  
Year to date cooling degree days 8 0  
Growing Degree Days 10 (Base 50)    
Moisture  
Dew Point 52 °F    
Average Humidity 71    
Maximum Humidity 96    
Minimum Humidity 46    
Precipitation  
Precipitation 0.25 in 0.08 in 1.77 in (1978)
Month to date precipitation 0.37 1.26  
Year to date precipitation 3.49 4.47  
Sea Level Pressure  
Sea Level Pressure 29.77 in    
Wind  
Wind Speed 8 mph (North)    
Max Wind Speed 33 mph    
Max Gust Speed 40 mph    
Visibility 10 miles    
Events Rain , Thunderstorm    
T = Trace of Precipitation, MM = Missing Value Source: NWS Daily Summary

Daily Weather History Graph

Daily Weather History Graph

Search for Another Location

Airport:

Trip Planner

Search our weather history database for the weather conditions in past years. The results will help you decide how hot, cold, wet, or windy it might be!

Date:

Astronomy

May. 17, 2013 Rise Set
Actual Time 5:32 AM MDT 8:25 PM MDT
Civil Twilight 4:58 AM MDT 8:59 PM MDT
Nautical Twilight 4:15 AM MDT 9:42 PM MDT
Astronomical Twilight 3:25 AM MDT 10:33 PM MDT
Moon 12:14 PM MDT (5/17) 1:13 AM MDT (5/17)
Length of Visible Light 16h 00m
Length of Day
14h 52m
Waxing Crescent, 46% of the Moon is Illuminated
May 17
Waxing Crescent
May 17
First Quarter
May 24
Full
May 31
Last Quarter
Jun 8
New

Hourly Weather History & Observations

Time (MDT) Temp. Dew Point Humidity Pressure Visibility Wind Dir Wind Speed Gust Speed Precip Events Conditions
12:53 AM 53.1 °F 50.0 °F 89% 29.75 in 10.0 mi Calm Calm - N/A   Scattered Clouds
1:53 AM 48.0 °F 46.9 °F 96% 29.77 in 10.0 mi South 5.8 mph - N/A   Clear
2:53 AM 52.0 °F 50.0 °F 93% 29.76 in 10.0 mi WSW 4.6 mph - N/A   Partly Cloudy
3:53 AM 53.1 °F 51.1 °F 93% 29.75 in 10.0 mi West 5.8 mph - N/A   Overcast
4:53 AM 53.1 °F 51.1 °F 93% 29.73 in 10.0 mi NE 4.6 mph - 0.01 in Rain Light Rain
5:53 AM 53.6 °F 51.8 °F 94% 29.86 in 10.0 mi WNW 4.6 mph - N/A   Overcast
6:29 AM 55.4 °F 53.6 °F 94% 29.87 in 10.0 mi Calm Calm - N/A   Mostly Cloudy
6:53 AM 55.0 °F 53.1 °F 93% 29.80 in 10.0 mi Calm Calm - N/A   Partly Cloudy
7:53 AM 57.9 °F 53.1 °F 84% 29.80 in 10.0 mi ENE 5.8 mph - N/A   Partly Cloudy
8:29 AM 57.2 °F 53.6 °F 88% 29.89 in 10.0 mi North 4.6 mph - N/A   Mostly Cloudy
8:45 AM 59.0 °F 53.6 °F 82% 29.88 in 10.0 mi Calm Calm - N/A   Scattered Clouds
8:53 AM 59.0 °F 53.1 °F 81% 29.81 in 10.0 mi Calm Calm - N/A   Partly Cloudy
9:53 AM 63.0 °F 53.1 °F 70% 29.80 in 10.0 mi Variable 5.8 mph - N/A   Clear
10:53 AM 66.0 °F 53.1 °F 63% 29.78 in 10.0 mi NNE 6.9 mph - N/A   Scattered Clouds
11:53 AM 69.1 °F 51.1 °F 53% 29.76 in 10.0 mi NE 9.2 mph - N/A   Clear
12:53 PM 71.6 °F 51.8 °F 50% 29.82 in 10.0 mi East 9.2 mph 17.3 mph N/A   Clear
1:53 PM 72.0 °F 51.1 °F 48% 29.73 in 10.0 mi NE 8.1 mph - N/A   Mostly Cloudy
2:53 PM 73.0 °F 52.0 °F 48% 29.70 in 10.0 mi NNE 12.7 mph - N/A   Mostly Cloudy
3:53 PM 70.0 °F 52.0 °F 53% 29.65 in 10.0 mi NE 16.1 mph - N/A   Clear
4:02 PM 69.8 °F 51.8 °F 53% 29.75 in 10.0 mi NE 19.6 mph - N/A Thunderstorm Thunderstorm
4:29 PM 64.4 °F 53.6 °F 68% 29.74 in 9.0 mi WSW 23.0 mph 32.2 mph 0.00 in Rain , Thunderstorm Light Thunderstorms and Rain
4:35 PM 60.8 °F 53.6 °F 77% 29.80 in 1.8 mi Variable 5.8 mph 27.6 mph 0.02 in Rain , Thunderstorm Heavy Thunderstorms and Rain
4:42 PM 60.8 °F 51.8 °F 72% 29.76 in 3.0 mi WNW 10.4 mph 21.9 mph 0.17 in Rain , Thunderstorm Light Thunderstorms and Rain
4:53 PM 59.0 °F 52.0 °F 78% 29.68 in 10.0 mi South 5.8 mph - 0.18 in Rain , Thunderstorm Light Thunderstorms and Rain
5:41 PM 66.2 °F 51.8 °F 60% 29.73 in 10.0 mi NE 8.1 mph - 0.01 in   Partly Cloudy
5:53 PM 66.9 °F 55.0 °F 66% 29.64 in 10.0 mi North 9.2 mph - 0.01 in   Clear
6:42 PM 62.6 °F 55.4 °F 77% 29.77 in 10.0 mi North 11.5 mph - N/A Thunderstorm Clear
6:53 PM 62.1 °F 55.0 °F 78% 29.73 in 10.0 mi WNW 27.6 mph 34.5 mph N/A   Scattered Clouds
7:02 PM 57.2 °F 53.6 °F 88% 29.75 in 10.0 mi North 29.9 mph 40.3 mph N/A   Partly Cloudy
7:08 PM 59.0 °F 53.6 °F 82% 29.76 in 10.0 mi North 23.0 mph 35.7 mph N/A Thunderstorm Partly Cloudy
7:29 PM 57.2 °F 53.6 °F 88% 29.82 in 8.0 mi North 8.1 mph 28.8 mph N/A   Scattered Clouds
7:53 PM 55.0 °F 51.1 °F 86% 29.73 in 10.0 mi North 11.5 mph - 0.05 in   Scattered Clouds
8:53 PM 52.0 °F 50.0 °F 93% 29.74 in 10.0 mi NE 4.6 mph - N/A   Clear
9:53 PM 53.1 °F 50.0 °F 89% 29.78 in 10.0 mi NNW 6.9 mph - N/A   Partly Cloudy
10:53 PM 50.0 °F 48.0 °F 93% 29.77 in 10.0 mi Calm Calm - N/A   Clear
11:53 PM 51.1 °F 50.0 °F 96% 29.76 in 10.0 mi WNW 6.9 mph - N/A   Clear